NKS723 MKJP-MKJS

Flight info

Callsign NKS723
Flight time 0h 23m
Altitude 12000
Route LEXUV5 KEMBO OMAXI7
Aircraft A320/M-SDE3FGHIRWY/LB1

Departure

Time 2026-04-27 13:28
Airport Norman Manley International Airport (MKJP)

Arrival

Time 2026-04-27 13:52
Airport Sangster International Airport (MKJS)
Time Latitude Longitude Altitude Speed Heading
2026-04-27 13:10 17.93701 -76.78015 14 ft 0 kts 112°
2026-04-27 13:17 17.93704 -76.78022 14 ft 4 kts 112°
2026-04-27 13:17 17.93713 -76.78047 14 ft 2 kts 110°
2026-04-27 13:17 17.93722 -76.78069 15 ft 4 kts 127°
2026-04-27 13:18 17.93734 -76.78079 16 ft 4 kts 213°
2026-04-27 13:18 17.93722 -76.78085 15 ft 4 kts 204°
2026-04-27 13:18 17.93697 -76.78094 14 ft 4 kts 198°
2026-04-27 13:18 17.93671 -76.78104 14 ft 3 kts 202°
2026-04-27 13:19 17.93677 -76.78101 14 ft 4 kts 210°
2026-04-27 13:19 17.93683 -76.78098 14 ft 0 kts 202°
2026-04-27 13:21 17.93682 -76.78098 14 ft 1 kts 202°
2026-04-27 13:21 17.93662 -76.78107 14 ft 4 kts 202°
2026-04-27 13:21 17.93626 -76.78122 14 ft 8 kts 202°
2026-04-27 13:22 17.93567 -76.78148 14 ft 10 kts 203°
2026-04-27 13:22 17.93518 -76.78192 14 ft 10 kts 257°
2026-04-27 13:22 17.93537 -76.78261 14 ft 10 kts 292°
2026-04-27 13:22 17.93571 -76.78345 14 ft 15 kts 293°
2026-04-27 13:23 17.93612 -76.78451 14 ft 16 kts 292°
2026-04-27 13:23 17.93654 -76.78561 14 ft 17 kts 292°
2026-04-27 13:23 17.93698 -76.78678 15 ft 18 kts 292°
2026-04-27 13:23 17.93746 -76.78801 14 ft 19 kts 292°
2026-04-27 13:24 17.93798 -76.78938 14 ft 21 kts 292°
2026-04-27 13:24 17.93856 -76.79089 14 ft 23 kts 291°
2026-04-27 13:24 17.93920 -76.79255 14 ft 25 kts 292°
2026-04-27 13:24 17.93989 -76.79435 13 ft 28 kts 292°
2026-04-27 13:25 17.94057 -76.79609 14 ft 21 kts 292°
2026-04-27 13:25 17.94095 -76.79764 14 ft 22 kts 278°
2026-04-27 13:25 17.94104 -76.79875 13 ft 12 kts 253°
2026-04-27 13:25 17.94092 -76.79895 13 ft 0 kts 229°
2026-04-27 13:27 17.94090 -76.79897 13 ft 1 kts 227°
2026-04-27 13:27 17.94070 -76.79913 12 ft 7 kts 211°
2026-04-27 13:27 17.94013 -76.79906 12 ft 10 kts 137°
2026-04-27 13:28 17.93961 -76.79777 15 ft 47 kts 111°
2026-04-27 13:28 17.93724 -76.79167 16 ft 128 kts 112°
2026-04-27 13:28 17.93324 -76.78147 332 ft 158 kts 112°
2026-04-27 13:28 17.92931 -76.77098 1173 ft 155 kts 111°
2026-04-27 13:29 17.92544 -76.76076 1898 ft 147 kts 110°
2026-04-27 13:29 17.91909 -76.75146 2092 ft 172 kts 144°
2026-04-27 13:29 17.90674 -76.74841 2314 ft 202 kts 187°
2026-04-27 13:29 17.89243 -76.75332 2627 ft 228 kts 199°
2026-04-27 13:30 17.87758 -76.75965 3313 ft 236 kts 200°
2026-04-27 13:30 17.86232 -76.76634 4147 ft 238 kts 200°
2026-04-27 13:30 17.84693 -76.77307 5016 ft 240 kts 200°
2026-04-27 13:30 17.83189 -76.78087 5820 ft 245 kts 216°
2026-04-27 13:31 17.82152 -76.79526 6597 ft 253 kts 249°
2026-04-27 13:31 17.81957 -76.81393 7035 ft 276 kts 281°
2026-04-27 13:31 17.82592 -76.83361 7567 ft 290 kts 292°
2026-04-27 13:31 17.83372 -76.85335 8336 ft 295 kts 293°
2026-04-27 13:32 17.84185 -76.87331 9133 ft 299 kts 293°
2026-04-27 13:32 17.85025 -76.89352 9910 ft 303 kts 297°
2026-04-27 13:32 17.86181 -76.91269 10302 ft 320 kts 310°
2026-04-27 13:32 17.87662 -76.93085 10479 ft 343 kts 311°
2026-04-27 13:33 17.89258 -76.95032 10862 ft 356 kts 311°
2026-04-27 13:33 17.90883 -76.97024 11455 ft 361 kts 310°
2026-04-27 13:33 17.92521 -76.99040 11861 ft 363 kts 310°
2026-04-27 13:33 17.94161 -77.01068 11973 ft 368 kts 310°
2026-04-27 13:34 17.95869 -77.03183 11996 ft 388 kts 310°
2026-04-27 13:34 17.97617 -77.05352 11992 ft 394 kts 309°
2026-04-27 13:34 17.99395 -77.07558 11995 ft 396 kts 310°
2026-04-27 13:34 18.01180 -77.09766 12011 ft 395 kts 310°
2026-04-27 13:35 18.02959 -77.11968 12008 ft 395 kts 310°
2026-04-27 13:35 18.04739 -77.14169 12011 ft 395 kts 310°
2026-04-27 13:35 18.06493 -77.16343 12003 ft 395 kts 309°
2026-04-27 13:35 18.08272 -77.18552 12011 ft 395 kts 309°
2026-04-27 13:36 18.10048 -77.20757 12004 ft 395 kts 309°
2026-04-27 13:36 18.11826 -77.22962 12027 ft 395 kts 310°
2026-04-27 13:36 18.13605 -77.25168 12030 ft 395 kts 310°
2026-04-27 13:36 18.15378 -77.27368 12044 ft 395 kts 310°
2026-04-27 13:37 18.17161 -77.29581 12046 ft 395 kts 310°
2026-04-27 13:37 18.18917 -77.31763 12046 ft 395 kts 310°
2026-04-27 13:37 18.20689 -77.33966 12047 ft 394 kts 310°
2026-04-27 13:37 18.22303 -77.36313 12044 ft 394 kts 300°
2026-04-27 13:38 18.23571 -77.38830 12051 ft 394 kts 297°
2026-04-27 13:38 18.24833 -77.41385 12049 ft 394 kts 297°
2026-04-27 13:38 18.26098 -77.43941 12049 ft 394 kts 297°
2026-04-27 13:38 18.27367 -77.46497 12049 ft 394 kts 297°
2026-04-27 13:39 18.28641 -77.49060 12047 ft 394 kts 297°
2026-04-27 13:39 18.29911 -77.51616 12051 ft 394 kts 297°
2026-04-27 13:39 18.31181 -77.54168 12056 ft 394 kts 297°
2026-04-27 13:39 18.32454 -77.56726 12056 ft 394 kts 297°
2026-04-27 13:40 18.33725 -77.59281 12054 ft 394 kts 297°
2026-04-27 13:40 18.34993 -77.61838 12054 ft 394 kts 297°
2026-04-27 13:40 18.36240 -77.64360 12054 ft 393 kts 298°
2026-04-27 13:40 18.37427 -77.66959 12049 ft 393 kts 290°
2026-04-27 13:41 18.37894 -77.69732 11823 ft 378 kts 269°
2026-04-27 13:41 18.37451 -77.72395 11580 ft 364 kts 250°
2026-04-27 13:41 18.36248 -77.74685 11339 ft 354 kts 231°
2026-04-27 13:41 18.34555 -77.76548 11044 ft 350 kts 225°
2026-04-27 13:42 18.32969 -77.78447 10595 ft 346 kts 231°
2026-04-27 13:42 18.31636 -77.80453 10468 ft 322 kts 238°
2026-04-27 13:42 18.30578 -77.82453 10167 ft 306 kts 244°
2026-04-27 13:42 18.29747 -77.84498 9856 ft 300 kts 249°
2026-04-27 13:43 18.29123 -77.86572 9733 ft 300 kts 255°
2026-04-27 13:43 18.28683 -77.88719 9603 ft 299 kts 260°
2026-04-27 13:43 18.28437 -77.90890 9221 ft 299 kts 266°
2026-04-27 13:43 18.28396 -77.93066 8666 ft 295 kts 271°
2026-04-27 13:44 18.28549 -77.95204 8113 ft 292 kts 277°
2026-04-27 13:44 18.28889 -77.97309 7547 ft 290 kts 282°
2026-04-27 13:44 18.29397 -77.99327 7022 ft 288 kts 288°
2026-04-27 13:44 18.30085 -78.01295 6484 ft 286 kts 293°
2026-04-27 13:45 18.30946 -78.03187 5906 ft 283 kts 298°
2026-04-27 13:45 18.31950 -78.04962 5370 ft 281 kts 304°
2026-04-27 13:45 18.33100 -78.06612 4819 ft 277 kts 310°
2026-04-27 13:45 18.34369 -78.08102 4273 ft 275 kts 315°
2026-04-27 13:46 18.35719 -78.09454 4149 ft 259 kts 319°
2026-04-27 13:46 18.37077 -78.10632 4086 ft 247 kts 323°
2026-04-27 13:46 18.38472 -78.11637 3986 ft 238 kts 334°
2026-04-27 13:46 18.40026 -78.11971 3881 ft 225 kts
2026-04-27 13:47 18.41411 -78.11366 3731 ft 213 kts 44°
2026-04-27 13:47 18.42204 -78.10095 3509 ft 207 kts 66°
2026-04-27 13:47 18.42781 -78.08750 3268 ft 200 kts 67°
2026-04-27 13:47 18.43351 -78.07428 3012 ft 197 kts 67°
2026-04-27 13:48 18.43919 -78.06124 2736 ft 193 kts 66°
2026-04-27 13:48 18.44468 -78.04865 2495 ft 186 kts 66°
2026-04-27 13:48 18.44993 -78.03664 2258 ft 179 kts 66°
2026-04-27 13:48 18.45510 -78.02480 2042 ft 178 kts 66°
2026-04-27 13:49 18.46027 -78.01295 1793 ft 176 kts 66°
2026-04-27 13:49 18.46523 -78.00159 1570 ft 164 kts 66°
2026-04-27 13:49 18.46977 -77.99117 1378 ft 148 kts 66°
2026-04-27 13:49 18.47402 -77.98143 1177 ft 143 kts 66°
2026-04-27 13:50 18.47809 -77.97212 999 ft 141 kts 65°
2026-04-27 13:50 18.48216 -77.96276 817 ft 140 kts 65°
2026-04-27 13:50 18.48625 -77.95334 658 ft 142 kts 66°
2026-04-27 13:50 18.49032 -77.94385 480 ft 143 kts 65°
2026-04-27 13:51 18.49441 -77.93435 297 ft 142 kts 64°
2026-04-27 13:51 18.49852 -77.92509 119 ft 141 kts 63°
2026-04-27 13:51 18.50256 -77.91595 16 ft 127 kts 64°
2026-04-27 13:51 18.50564 -77.90887 15 ft 83 kts 66°
2026-04-27 13:52 18.50749 -77.90463 12 ft 54 kts 65°
2026-04-27 13:52 18.50834 -77.90258 10 ft 16 kts 74°
2026-04-27 13:52 18.50792 -77.90177 10 ft 14 kts 172°
2026-04-27 13:52 18.50693 -77.90212 11 ft 16 kts 201°
2026-04-27 13:53 18.49301 -77.93758 371 ft 142 kts 65°
2026-04-27 13:53 18.49711 -77.92824 177 ft 141 kts 63°
2026-04-27 13:53 18.50128 -77.91888 27 ft 136 kts 64°
2026-04-27 13:54 18.50292 -77.91513 15 ft 124 kts 64°